Location: Harmony
(28.2000°N, 81.1500°W)
Time: 06:02:33
(UTC-04:00)

Cosmos 1980 Rocket - Pass Details

Date: 18 December 2017
Orbit: 831 x 848 km, 71.0° (Epoch: 18 April)

Event Time Altitude Azimuth Distance (km) Brightness Sun altitude
Rises 18:38:21 0° 210° (SSW) 3,381 6.2 -14.3°
Reaches altitude 10° 18:40:50 10° 215° (SW) 2,452 5.4 -14.8°
Maximum altitude 18:46:19 52° 291° (WNW) 1,037 3.0 -16.0°
Drops below altitude 10° 18:51:50 10° 8° (N) 2,471 4.4 -17.1°
Enters shadow 18:53:26 - 12° (NNE) 3,061 4.8 -17.5°
